TimeCST,TemperatureF,Dew PointF,Humidity,Sea Level PressureIn,VisibilityMPH,Wind Direction,Wind SpeedMPH,Gust SpeedMPH,PrecipitationIn,Events,Conditions,WindDirDegrees,DateUTC
12:14 AM,21.2,15.8,80,30.00,10.0,WSW,8.1,-,N/A,,Mostly Cloudy,240,2013-02-02 06:14:00
12:53 AM,24.1,17.1,75,30.04,10.0,WSW,11.5,-,N/A,,Overcast,240,2013-02-02 06:53:00
1:53 AM,25.0,18.0,75,30.04,10.0,West,12.7,-,N/A,,Scattered Clouds,270,2013-02-02 07:53:00
2:53 AM,25.0,18.0,75,30.06,10.0,NW,16.1,-,N/A,,Mostly Cloudy,310,2013-02-02 08:53:00
3:53 AM,19.9,14.0,78,30.08,10.0,NNW,15.0,-,N/A,,Clear,330,2013-02-02 09:53:00
4:39 AM,19.4,12.2,74,30.06,10.0,NNW,16.1,-,N/A,,Mostly Cloudy,340,2013-02-02 10:39:00
4:53 AM,19.0,12.9,77,30.11,10.0,NNW,17.3,21.9,N/A,,Overcast,340,2013-02-02 10:53:00
6:53 AM,16.0,10.0,77,30.17,10.0,NNW,18.4,-,N/A,,Overcast,330,2013-02-02 12:53:00
7:53 AM,14.0,8.1,77,30.20,7.0,NW,13.8,-,N/A,,Overcast,320,2013-02-02 13:53:00
8:20 AM,12.2,6.8,79,30.16,10.0,NNW,12.7,-,N/A,,Scattered Clouds,340,2013-02-02 14:20:00
8:53 AM,12.9,6.1,74,30.21,10.0,North,16.1,-,N/A,,Clear,350,2013-02-02 14:53:00
9:53 AM,14.0,5.0,67,30.22,10.0,NNW,15.0,-,N/A,,Clear,340,2013-02-02 15:53:00
10:53 AM,14.0,6.1,71,30.22,10.0,NW,13.8,-,N/A,,Scattered Clouds,310,2013-02-02 16:53:00
11:53 AM,16.0,7.0,68,30.21,10.0,NW,11.5,-,N/A,,Scattered Clouds,320,2013-02-02 17:53:00
12:53 PM,18.0,8.1,65,30.19,10.0,NNW,10.4,-,N/A,,Overcast,330,2013-02-02 18:53:00
1:53 PM,18.0,8.1,65,30.17,10.0,WNW,6.9,-,N/A,,Overcast,300,2013-02-02 19:53:00
2:53 PM,19.0,8.1,62,30.17,10.0,WNW,8.1,-,N/A,,Overcast,300,2013-02-02 20:53:00
3:53 PM,19.0,10.0,68,30.15,8.0,West,3.5,-,N/A,,Overcast,270,2013-02-02 21:53:00
4:53 PM,19.9,12.9,74,30.13,10.0,SW,5.8,-,0.00,,Overcast,230,2013-02-02 22:53:00
5:48 PM,19.4,14.0,80,30.07,2.5,SSW,8.1,-,0.00,Snow,Light Snow,210,2013-02-02 23:48:00
5:53 PM,19.0,14.0,81,30.11,1.2,SW,6.9,-,0.00,Snow,Light Snow,220,2013-02-02 23:53:00
6:04 PM,19.4,15.8,86,30.07,0.8,SSW,6.9,-,0.00,Snow,Light Snow,210,2013-02-03 00:04:00
6:39 PM,19.4,17.6,93,30.06,1.8,South,6.9,-,0.03,Snow,Light Snow,180,2013-02-03 00:39:00
6:44 PM,19.4,17.6,93,30.06,2.5,South,4.6,-,0.03,Snow,Light Snow,180,2013-02-03 00:44:00
6:53 PM,19.0,17.1,92,30.09,5.0,South,6.9,-,0.03,Snow,Light Snow,180,2013-02-03 00:53:00
7:53 PM,19.9,17.1,89,30.08,5.0,South,9.2,-,0.01,Snow,Light Snow,190,2013-02-03 01:53:00
8:48 PM,19.4,17.6,93,30.00,10.0,South,6.9,-,0.00,,Overcast,190,2013-02-03 02:48:00
8:53 PM,19.9,18.0,92,30.04,10.0,South,9.2,-,0.00,,Overcast,190,2013-02-03 02:53:00
9:19 PM,21.2,17.6,86,29.99,4.0,SSW,8.1,-,0.00,Snow,Light Snow,200,2013-02-03 03:19:00
9:36 PM,21.2,19.4,93,29.99,2.0,SSW,8.1,-,0.00,Snow,Light Snow,200,2013-02-03 03:36:00
9:53 PM,21.9,19.9,92,30.02,7.0,SW,9.2,-,0.00,,Overcast,220,2013-02-03 03:53:00
10:21 PM,23.0,21.2,93,29.97,10.0,SW,9.2,-,N/A,,Overcast,220,2013-02-03 04:21:00
10:53 PM,26.1,23.0,88,30.00,10.0,West,11.5,-,N/A,,Overcast,260,2013-02-03 04:53:00
11:40 PM,33.8,26.6,75,29.96,9.0,NW,24.2,31.1,N/A,,Overcast,310,2013-02-03 05:40:00
11:53 PM,33.1,27.0,78,29.99,9.0,NW,18.4,31.1,N/A,,Overcast,310,2013-02-03 05:53:00